This is the latest recevied weather packets stored in our database for station/object EA4HBE-10. If no packets are shown the sender has not sent any weather packets the latest 10 day(s).
| Time | Temp. | Humidity | Pressure | Rain* | Wind** | Luminosity | Snow |
|---|---|---|---|---|---|---|---|
| 1777676289 | 18.33° C | 76% | 1018.1 hPa | - | - | - | - |
| 1777675389 | 18.89° C | 74% | 1018.3 hPa | - | - | - | - |
| 1777674490 | 18.33° C | 75% | 1018.4 hPa | - | - | - | - |
| 1777673589 | 18.89° C | 74% | 1018.5 hPa | - | - | - | - |
| 1777672689 | 18.89° C | 75% | 1018.5 hPa | - | - | - | - |
| 1777671789 | 18.89° C | 73% | 1018.5 hPa | - | - | - | - |
| 1777670889 | 18.33° C | 77% | 1018.6 hPa | - | - | - | - |
| 1777669989 | 18.33° C | 75% | 1018.8 hPa | - | - | - | - |
| 1777669089 | 17.78° C | 78% | 1018.6 hPa | - | - | - | - |
| 1777668189 | 18.33° C | 77% | 1018.5 hPa | - | - | - | - |
| 1777667289 | 18.33° C | 77% | 1018.6 hPa | - | - | - | - |
| 1777666388 | 17.78° C | 79% | 1018.4 hPa | - | - | - | - |
| 1777665488 | 17.78° C | 78% | 1018.4 hPa | - | - | - | - |
| 1777664588 | 17.22° C | 81% | 1018.3 hPa | - | - | - | - |
| 1777664405 | 17.22° C | 81% | 1018.3 hPa | - | - | - | - |
| 1777664125 | 17.22° C | 81% | 1018.3 hPa | - | - | - | - |
| 1777663806 | 17.78° C | 80% | 1018.2 hPa | - | - | - | - |
| 1777663751 | 17.78° C | 80% | 1018.3 hPa | - | - | - | - |
| 1777663704 | 17.78° C | 80% | 1018.2 hPa | - | - | - | - |
| 1777663416 | 17.78° C | 80% | 1018.3 hPa | - | - | - | - |
| 1777663273 | 17.78° C | 79% | 1018.4 hPa | - | - | - | - |
| 1777663196 | 17.78° C | 79% | 1018.5 hPa | - | - | - | - |
| 1777663150 | 17.78° C | 80% | 1018.5 hPa | - | - | - | - |
| 1777663081 | 17.78° C | 79% | 1018.5 hPa | - | - | - | - |
| 1777663019 | 17.78° C | 80% | 1018.5 hPa | - | - | - | - |
* Rain since midnight (hover to see other rain measurements)
** Current wind speed in m/s (hover to see current wind gust speed)